Tracking 28790 objects as of 19-Apr-2024
HD Live streaming from Space Station
objects crossing your sky now

ARIANE 42P+ DEB

Track ARIANE 42P+ DEB now!
10-day predictions


NORAD ID: 34197
Int'l Code: 1992-072AD
Perigee: 474.5 km
Apogee: 19,205.3 km
Inclination: 13.2 °
Period: 342.4 minutes
Semi major axis: 16210 km
RCS: 0.3693 m2 (medium)
Launch date: October 28, 1992
Source: France (FR)
Launch site: FRENCH GUIANA (FRGUI)

Note: This is SATELLITE DEBRIS
Your satellite tracking list
Your tracking list is empty




NASA's NSSDC Master Catalog

Two Line Element Set (TLE):
1 34197U 92072AD  24109.07189104  .00004848  00000-0  87198-2 0  9999
2 34197  13.2002  17.8847 5777217 286.0631  20.2232  4.20621370157314
Source of the keplerian elements: AFSPC